{"data":{"norad_id":55244,"intl_designator":"2023-006C","name":"YAOGAN-37","alt_names":[],"object_type":"PAYLOAD","status":"ACTIVE","operator":null,"country":"PRC","launch_date":"2023-01-13","launch_site_code":"JSC","launch_vehicle":null,"mission":null,"orbit_class":"UNKNOWN","rcs_meters":null,"size_class":null,"mass_kg":null,"dimensions":null,"purposes":[],"wikipedia_slug":null,"has_3d_model":false,"image_url":null,"decayed_at":null,"tle_current":{"epoch":"2026-05-25T04:06:32.582880Z","epoch_age_seconds":70624,"freshness":"FRESH","line1":"1 55244U 23006C   26145.17121045  .00005018  00000+0  26054-3 0  9993","line2":"2 55244  43.1966 250.1739 0018098 230.3078 129.6177 15.16955832186381","mean_motion":15.16955832,"eccentricity":0.0018098,"inclination_deg":43.1966,"raan_deg":250.1739,"arg_perigee_deg":230.3078,"mean_anomaly_deg":129.6177,"bstar":0.00026054,"rev_number":18638,"period_min":94.926956317605,"perigee_km":502.57191724865,"apogee_km":527.52248678628,"semimajor_km":6893.1842020175,"source":"CELESTRAK","updated_at":"2026-05-25T13:37:58.877659Z"}}}